Weather History for Toronto Pearson, ON

Change the Weather History Date:

Friday, November 22, 2013

  Actual Average Record
Temperature  
Mean Temperature 40 °F -  
Max Temperature 47 °F 36 °F 59 °F (1999)
Min Temperature 30 °F 22 °F 14 °F (2008)
Degree Days  
Heating Degree Days 26    
Moisture  
Dew Point 38 °F    
Average Humidity 89    
Maximum Humidity 100    
Minimum Humidity 62    
Precipitation  
Precipitation 0.12 in 0.09 in - ()
Sea Level Pressure  
Sea Level Pressure 30.13 in    
Wind  
Wind Speed 7 mph ()    
Max Wind Speed 28 mph    
Max Gust Speed 44 mph    
Visibility 6.2 miles    
Events Fog , Rain    
Averages and records for this station are not official NWS values.
T = Trace of Precipitation, MM = Missing Value Source: Averaged Metar Reports

Daily Weather History Graph

Daily Weather History Graph

Search for Another Location

Airport:

Trip Planner

Search our weather history database for the weather conditions in past years. The results will help you decide how hot, cold, wet, or windy it might be!

Date:

Astronomy

Nov. 22, 2013 Rise Set
Actual Time 7:21 AM EST 4:47 PM EST
Civil Twilight 6:50 AM EST 5:18 PM EST
Nautical Twilight 6:15 AM EST 5:54 PM EST
Astronomical Twilight 5:40 AM EST 6:28 PM EST
Moon 9:20 PM EST (11/22) 11:02 AM EST (11/22)
Length of Visible Light 10h 28m
Length of Day
9h 25m
Waning Gibbous, 78% of the Moon is Illuminated
Nov 22
Waning Gibbous
Nov 25
Last Quarter
Dec 2
New
Dec 9
First Quarter
Dec 17
Full

Hourly Weather History & Observations

Time (EST) Temp. Windchill Dew Point Humidity Pressure Visibility Wind Dir Wind Speed Gust Speed Precip Events Conditions
12:00 AM 41.0 °F 37.1 °F 39.2 °F 93% 30.23 in 2.5 mi SSE 5.8 mph - N/A Rain Light Rain
1:00 AM 41 °F - 40 °F 95% 30.21 in 2 mi SE 4.6 mph - - Rain Light Rain
1:00 AM 41.0 °F 38.0 °F 39.2 °F 93% 30.21 in 2.5 mi SE 4.6 mph - N/A Rain Light Rain
2:00 AM 41.0 °F 39.0 °F 41.0 °F 100% 30.19 in 2.0 mi SE 3.5 mph - N/A Rain Light Rain
3:00 AM 41.0 °F 37.1 °F 41.0 °F 100% 30.17 in 1.5 mi SE 5.8 mph - N/A Rain Light Rain
3:15 AM 41.0 °F 38.0 °F 39.2 °F 93% 30.17 in 1.0 mi SSE 4.6 mph - N/A Rain Light Rain
3:30 AM 41.0 °F 39.0 °F 39.2 °F 93% 30.17 in 0.8 mi SSE 3.5 mph - N/A Rain Light Rain
4:00 AM 41.0 °F 36.4 °F 39.2 °F 93% 30.15 in 0.5 mi SSE 6.9 mph - N/A Fog , Rain Light Rain
4:18 AM 41.0 °F 36.4 °F 39.2 °F 93% 30.15 in 0.2 mi SSE 6.9 mph - N/A Fog Light Drizzle
5:00 AM 41.0 °F 38.0 °F 41.0 °F 100% 30.14 in 0.2 mi ESE 4.6 mph - N/A Fog Light Drizzle
5:45 AM 41.0 °F 39.0 °F 41.0 °F 100% 30.13 in 0.5 mi SSE 3.5 mph - N/A Fog Light Drizzle
6:00 AM 41.0 °F 39.0 °F 41.0 °F 100% 30.13 in 0.5 mi SSE 3.5 mph - N/A Fog Fog
6:38 AM 41.0 °F - 41.0 °F 100% 30.13 in 0.8 mi Calm Calm - N/A   Mist
6:48 AM 41.0 °F - 41.0 °F 100% 30.13 in 1.5 mi South 2.3 mph - N/A   Overcast
7:00 AM 42 °F - 41 °F 96% 30.13 in 2 mi South 2.3 mph - - Fog Light Fog
7:00 AM 41.0 °F - 41.0 °F 100% 30.13 in 2.5 mi South 2.3 mph - N/A   Overcast
7:26 AM 42.8 °F 40.1 °F 41.0 °F 93% 30.12 in 3.0 mi South 4.6 mph - N/A   Overcast
8:00 AM 42.8 °F 41.1 °F 41.0 °F 93% 30.11 in 4.0 mi WSW 3.5 mph - N/A   Overcast
8:24 AM 42.8 °F 41.1 °F 41.0 °F 93% 30.11 in 5.0 mi SW 3.5 mph - N/A   Mostly Cloudy
9:00 AM 42.8 °F 40.1 °F 42.8 °F 100% 30.10 in 5.0 mi West 4.6 mph - N/A   Mostly Cloudy
10:00 AM 44.6 °F 40.2 °F 42.8 °F 93% 30.11 in 5.0 mi West 8.1 mph - N/A   Overcast
10:23 AM 44.6 °F 43.1 °F 42.8 °F 93% 30.09 in 5.0 mi NW 3.5 mph - N/A Rain Light Rain Showers
11:00 AM 46.4 °F 43.5 °F 42.8 °F 87% 30.08 in 6.0 mi WNW 5.8 mph - N/A   Overcast
11:36 AM 48.2 °F - 42.8 °F 82% 30.07 in 6.0 mi WNW 4.6 mph - N/A Rain Light Rain Showers
12:00 PM 46.4 °F 43.5 °F 42.8 °F 87% 30.06 in 6.0 mi WSW 5.8 mph - N/A Rain Light Rain Showers
1:00 PM 46 °F - 44 °F 89% 30.04 in 6 mi West 6.9 mph - - Rain Light Rain Showers
1:00 PM 46.4 °F 42.9 °F 42.8 °F 87% 30.04 in 6.0 mi West 6.9 mph - N/A Rain Light Rain Showers
2:00 PM 46.4 °F 41.5 °F 42.8 °F 87% 30.04 in 6.0 mi WSW 10.4 mph - N/A Rain Light Rain Showers
3:00 PM 44.6 °F 36.9 °F 41.0 °F 87% 30.03 in 8.0 mi WNW 18.4 mph - N/A Rain Light Rain Showers
4:00 PM 42.8 °F 33.8 °F 37.4 °F 81% 30.04 in 15.0 mi NW 21.9 mph 34.5 mph N/A   Overcast
5:00 PM 41.0 °F 30.7 °F 33.8 °F 76% 30.07 in 15.0 mi WNW 25.3 mph - N/A   Mostly Cloudy
6:00 PM 39.2 °F 29.0 °F 32.0 °F 75% 30.10 in 15.0 mi NW 21.9 mph 33.4 mph N/A   Mostly Cloudy
7:00 PM 37 °F - 29 °F 62% 30.13 in 15 mi NW 24.2 mph - -   Partly Cloudy
7:00 PM 37.4 °F 25.6 °F 28.4 °F 70% 30.13 in 15.0 mi NW 26.5 mph 33.4 mph N/A   Scattered Clouds
7:10 PM 35.6 °F 24.0 °F 28.4 °F 75% 30.14 in 15.0 mi NW 23.0 mph 31.1 mph N/A   Scattered Clouds
8:00 PM 33.8 °F 20.5 °F 24.8 °F 70% 30.18 in 15.0 mi NW 27.6 mph 43.7 mph N/A   Mostly Cloudy
9:00 PM 32.0 °F 19.8 °F 24.8 °F 75% 30.20 in 15.0 mi NNW 20.7 mph 34.5 mph N/A   Mostly Cloudy
10:00 PM 32.0 °F 21.2 °F 24.8 °F 75% 30.22 in 15.0 mi NNW 16.1 mph 29.9 mph N/A   Mostly Cloudy
11:00 PM 30.2 °F 19.3 °F 23.0 °F 75% 30.23 in 15.0 mi NNW 15.0 mph 23.0 mph N/A   Scattered Clouds